| time (UTC) | temp F | wind direction | speed MPH | gust MPH | rain 1hr in | rain 24hr in | rain mn in | humidity % | barometer mb |
| 20260510160041 | 57 | 118 | 2.0 | 3.0 | 0.00 | 0.77 | 0.00 | 90 | 1018.8 |
| 20260510155438 | 58 | 107 | 2.0 | 3.0 | 0.00 | 0.77 | 0.00 | 90 | 1018.8 |
| 20260510154540 | 57 | 110 | 2.0 | 3.0 | 0.00 | 0.77 | 0.00 | 91 | 1018.7 |
| 20260510154417 | 57 | 112 | 3.0 | 3.0 | 0.00 | 0.77 | 0.00 | 91 | 1018.8 |
| 20260510153417 | 58 | 102 | 1.0 | 2.0 | 0.00 | 0.77 | 0.00 | 91 | 1018.6 |
| 20260510153049 | 57 | 100 | 2.0 | 4.0 | 0.00 | 0.77 | 0.00 | 90 | 1018.5 |
| 20260510152417 | 58 | 101 | 2.0 | 3.0 | 0.00 | 0.77 | 0.00 | 91 | 1018.6 |
| 20260510151545 | 58 | 94 | 1.0 | 3.0 | 0.00 | 0.77 | 0.00 | 90 | 1018.5 |
| 20260510151417 | 59 | 105 | 2.0 | 3.0 | 0.00 | 0.77 | 0.00 | 90 | 1018.5 |
| 20260510150417 | 58 | 47 | 1.0 | 2.0 | 0.00 | 0.77 | 0.00 | 92 | 1018.4 |
| 20260510150103 | 58 | 0 | 1.0 | 3.0 | 0.00 | 0.77 | 0.00 | 90 | 1018.4 |
| 20260510145417 | 58 | 118 | 1.0 | 3.0 | 0.00 | 0.77 | 0.00 | 91 | 1018.3 |
| 20260510144541 | 57 | 115 | 2.0 | 4.0 | 0.00 | 0.77 | 0.00 | 90 | 1018.2 |
| 20260510144438 | 58 | 110 | 2.0 | 4.0 | 0.00 | 0.77 | 0.00 | 91 | 1018.3 |
| 20260510143417 | 58 | 113 | 2.0 | 3.0 | 0.00 | 0.77 | 0.00 | 92 | 1018.3 |
| 20260510143101 | 57 | 98 | 2.0 | 3.0 | 0.00 | 0.77 | 0.00 | 91 | 1018.2 |
| 20260510142417 | 58 | 109 | 2.0 | 2.0 | 0.00 | 0.77 | 0.00 | 92 | 1018.4 |
| 20260510141546 | 57 | 98 | 1.0 | 4.0 | 0.00 | 0.77 | 0.00 | 91 | 1018.4 |
| 20260510141417 | 58 | 111 | 2.0 | 3.0 | 0.00 | 0.77 | 0.00 | 92 | 1018.5 |
| 20260510140417 | 57 | 110 | 2.0 | 3.0 | 0.00 | 0.77 | 0.00 | 93 | 1018.3 |
| 20260510140044 | 57 | 126 | 1.0 | 3.0 | 0.00 | 0.77 | 0.00 | 92 | 1018.3 |
| 20260510135417 | 58 | 108 | 2.0 | 3.0 | 0.00 | 0.77 | 0.00 | 93 | 1018.2 |
| 20260510134542 | 57 | 111 | 2.0 | 3.0 | 0.00 | 0.77 | 0.00 | 92 | 1018.3 |
| 20260510134417 | 57 | 106 | 2.0 | 3.0 | 0.00 | 0.77 | 0.00 | 92 | 1018.3 |
| 20260510133438 | 58 | 122 | 2.0 | 3.0 | 0.00 | 0.77 | 0.00 | 92 | 1018.3 |
| 20260510133042 | 57 | 124 | 2.0 | 4.0 | 0.00 | 0.77 | 0.00 | 92 | 1018.2 |
| 20260510132417 | 58 | 116 | 2.0 | 3.0 | 0.00 | 0.77 | 0.00 | 92 | 1018.3 |
| 20260510131542 | 57 | 94 | 2.0 | 3.0 | 0.00 | 0.77 | 0.00 | 92 | 1018.3 |
| 20260510131418 | 57 | 108 | 2.0 | 3.0 | 0.00 | 0.77 | 0.00 | 93 | 1018.3 |
| 20260510130416 | 57 | 105 | 3.0 | 3.0 | 0.00 | 0.77 | 0.00 | 94 | 1018.2 |
| 20260510130047 | 57 | 105 | 2.0 | 3.0 | 0.00 | 0.77 | 0.00 | 93 | 1018.2 |
| 20260510125417 | 57 | 104 | 2.0 | 3.0 | 0.00 | 0.77 | 0.00 | 93 | 1018.3 |
| 20260510124542 | 57 | 115 | 1.0 | 3.0 | 0.00 | 0.77 | 0.00 | 93 | 1018.3 |
| 20260510124417 | 57 | 113 | 2.0 | 2.0 | 0.00 | 0.77 | 0.00 | 94 | 1018.4 |
| 20260510123417 | 58 | 124 | 2.0 | 3.0 | 0.00 | 0.77 | 0.00 | 93 | 1018.5 |
| 20260510123042 | 57 | 101 | 2.0 | 3.0 | 0.00 | 0.77 | 0.00 | 93 | 1018.5 |
| 20260510122417 | 58 | 101 | 2.0 | 3.0 | 0.00 | 0.77 | 0.00 | 94 | 1018.7 |
| 20260510121541 | 57 | 98 | 2.0 | 3.0 | 0.00 | 0.77 | 0.00 | 93 | 1018.6 |
| 20260510121438 | 58 | 100 | 2.0 | 3.0 | 0.00 | 0.77 | 0.00 | 94 | 1018.6 |
| 20260510120417 | 58 | 94 | 2.0 | 3.0 | 0.00 | 0.77 | 0.00 | 94 | 1018.8 |
| 20260510120041 | 57 | 98 | 2.0 | 4.0 | 0.00 | 0.77 | 0.00 | 93 | 1018.6 |
| 20260510115438 | 58 | 100 | 2.0 | 3.0 | 0.00 | 0.77 | 0.00 | 95 | 1018.7 |
| 20260510114553 | 57 | 115 | 1.0 | 3.0 | 0.00 | 0.77 | 0.00 | 94 | 1018.6 |
| 20260510114416 | 58 | 114 | 2.0 | 3.0 | 0.00 | 0.77 | 0.00 | 95 | 1018.7 |
| 20260510113418 | 58 | 111 | 2.0 | 3.0 | 0.00 | 0.77 | 0.00 | 95 | 1019.0 |
| 20260510113044 | 58 | 107 | 1.0 | 3.0 | 0.00 | 0.77 | 0.00 | 94 | 1019.0 |
| 20260510112416 | 58 | 94 | 2.0 | 2.0 | 0.00 | 0.77 | 0.00 | 94 | 1019.0 |
| 20260510111818 | 58 | 106 | 2.0 | 3.0 | 0.00 | 0.77 | 0.00 | 95 | 1019.2 |
| 20260510111543 | 58 | 106 | 2.0 | 3.0 | 0.00 | 0.77 | 0.00 | 94 | 1019.2 |
| 20260510110817 | 58 | 96 | 2.0 | 3.0 | 0.00 | 0.77 | 0.00 | 94 | 1019.4 |
| 20260510110045 | 58 | 92 | 1.0 | 3.0 | 0.00 | 0.77 | 0.00 | 94 | 1019.2 |
| 20260510105817 | 58 | 98 | 2.0 | 2.0 | 0.00 | 0.77 | 0.00 | 94 | 1019.3 |
| 20260510104818 | 58 | 114 | 2.0 | 3.0 | 0.00 | 0.77 | 0.00 | 94 | 1019.4 |
| 20260510104541 | 58 | 113 | 2.0 | 3.0 | 0.00 | 0.77 | 0.00 | 94 | 1019.3 |
| 20260510103838 | 58 | 101 | 2.0 | 3.0 | 0.00 | 0.77 | 0.00 | 94 | 1019.3 |
| 20260510103049 | 58 | 104 | 1.0 | 3.0 | 0.00 | 0.77 | 0.00 | 94 | 1019.4 |
| 20260510102817 | 58 | 91 | 1.0 | 2.0 | 0.00 | 0.77 | 0.00 | 94 | 1019.4 |
| 20260510101817 | 58 | 113 | 1.0 | 2.0 | 0.00 | 0.77 | 0.00 | 95 | 1019.7 |
| 20260510101545 | 58 | 114 | 1.0 | 3.0 | 0.00 | 0.77 | 0.00 | 95 | 1019.7 |
| 20260510100817 | 59 | 102 | 2.0 | 3.0 | 0.00 | 0.77 | 0.00 | 95 | 1019.7 |
| 20260510100046 | 59 | 111 | 1.0 | 3.0 | 0.00 | 0.77 | 0.00 | 95 | 1019.8 |
| 20260510095818 | 60 | 95 | 2.0 | 2.0 | 0.00 | 0.77 | 0.77 | 95 | 1019.9 |
| 20260510094817 | 60 | 113 | 2.0 | 2.0 | 0.00 | 0.77 | 0.77 | 96 | 1019.9 |
| 20260510094547 | 59 | 113 | 0.0 | 2.0 | 0.00 | 0.77 | 0.77 | 96 | 1019.8 |
| 20260510093817 | 60 | 113 | 1.0 | 2.0 | 0.00 | 0.77 | 0.77 | 96 | 1020.1 |
| 20260510093043 | 59 | 111 | 2.0 | 3.0 | 0.00 | 0.77 | 0.77 | 95 | 1020.1 |
| 20260510092817 | 59 | 101 | 2.0 | 3.0 | 0.00 | 0.77 | 0.77 | 95 | 1020.2 |
| 20260510091817 | 59 | 146 | 1.0 | 2.0 | 0.00 | 0.77 | 0.77 | 95 | 1020.1 |
| 20260510091543 | 59 | 0 | 0.0 | 3.0 | 0.00 | 0.77 | 0.77 | 95 | 1020.1 |
| 20260510090817 | 59 | 105 | 1.0 | 3.0 | 0.00 | 0.77 | 0.77 | 95 | 1020.1 |
| 20260510090048 | 59 | 99 | 2.0 | 3.0 | 0.00 | 0.77 | 0.77 | 94 | 1020.2 |
| 20260510085817 | 59 | 104 | 2.0 | 3.0 | 0.00 | 0.77 | 0.77 | 95 | 1020.2 |
| 20260510084817 | 60 | 123 | 2.0 | 2.0 | 0.00 | 0.77 | 0.77 | 95 | 1020.2 |
| 20260510084543 | 59 | 111 | 1.0 | 3.0 | 0.00 | 0.77 | 0.77 | 94 | 1020.2 |
| 20260510083817 | 60 | 89 | 1.0 | 3.0 | 0.00 | 0.77 | 0.77 | 94 | 1020.1 |
| 20260510083052 | 60 | 105 | 1.0 | 2.0 | 0.00 | 0.77 | 0.77 | 94 | 1020.0 |
| 20260510082838 | 60 | 78 | 1.0 | 2.0 | 0.00 | 0.77 | 0.77 | 95 | 1020.1 |
| 20260510081817 | 60 | 139 | 1.0 | 3.0 | 0.00 | 0.77 | 0.77 | 96 | 1020.0 |
| 20260510081543 | 59 | 146 | 1.0 | 3.0 | 0.00 | 0.77 | 0.77 | 95 | 1020.1 |
| 20260510080817 | 60 | 110 | 2.0 | 3.0 | 0.00 | 0.77 | 0.77 | 95 | 1020.0 |
| 20260510080041 | 59 | 105 | 2.0 | 3.0 | 0.00 | 0.77 | 0.77 | 95 | 1020.0 |
| 20260510075817 | 60 | 96 | 2.0 | 3.0 | 0.00 | 0.77 | 0.77 | 96 | 1020.0 |
| 20260510074818 | 60 | 99 | 1.0 | 2.0 | 0.00 | 0.77 | 0.77 | 95 | 1019.8 |
| 20260510074548 | 59 | 95 | 2.0 | 3.0 | 0.00 | 0.77 | 0.77 | 95 | 1019.7 |
| 20260510073838 | 60 | 112 | 2.0 | 2.0 | 0.00 | 0.77 | 0.77 | 95 | 1019.7 |
| 20260510073051 | 60 | 100 | 1.0 | 3.0 | 0.00 | 0.77 | 0.77 | 94 | 1019.7 |
| 20260510072817 | 61 | 95 | 2.0 | 3.0 | 0.00 | 0.77 | 0.77 | 95 | 1019.8 |
| 20260510071818 | 61 | 125 | 2.0 | 3.0 | 0.00 | 0.77 | 0.77 | 95 | 1019.8 |
| 20260510071542 | 61 | 121 | 1.0 | 2.0 | 0.00 | 0.77 | 0.77 | 94 | 1019.8 |
| 20260510070817 | 61 | 76 | 2.0 | 2.0 | 0.00 | 0.77 | 0.77 | 95 | 1019.8 |
| 20260510070043 | 60 | 79 | 1.0 | 2.0 | 0.00 | 0.77 | 0.77 | 95 | 1019.7 |
| 20260510065817 | 61 | 108 | 2.0 | 2.0 | 0.00 | 0.77 | 0.77 | 95 | 1019.9 |
| 20260510064817 | 61 | 107 | 1.0 | 2.0 | 0.00 | 0.77 | 0.77 | 96 | 1019.7 |
| 20260510064542 | 61 | 87 | 0.0 | 2.0 | 0.00 | 0.77 | 0.77 | 95 | 1019.5 |
| 20260510063817 | 61 | 0.0 | 0.0 | 0.00 | 0.77 | 0.77 | 96 | 1019.4 | |
| 20260510063041 | 61 | 0 | 0.0 | 2.0 | 0.00 | 0.77 | 0.77 | 95 | 1019.2 |
| 20260510062817 | 62 | 0.0 | 0.0 | 0.00 | 0.77 | 0.77 | 96 | 1019.2 | |
| 20260510061818 | 62 | 100 | 1.0 | 2.0 | 0.00 | 0.77 | 0.77 | 96 | 1019.2 |
| 20260510061544 | 62 | 100 | 0.0 | 1.0 | 0.00 | 0.77 | 0.77 | 96 | 1019.2 |
| 20260510060818 | 62 | 100 | 0.0 | 1.0 | 0.00 | 0.77 | 0.77 | 96 | 1019.3 |
| 20260510060045 | 62 | 0 | 0.0 | 2.0 | 0.00 | 0.77 | 0.77 | 96 | 1019.2 |
| 20260510055817 | 62 | 100 | 0.0 | 1.0 | 0.00 | 0.77 | 0.77 | 96 | 1019.3 |
| 20260510054817 | 62 | 28 | 1.0 | 2.0 | 0.00 | 0.77 | 0.77 | 96 | 1019.2 |
| 20260510054542 | 61 | 0 | 0.0 | 2.0 | 0.00 | 0.77 | 0.77 | 96 | 1019.1 |
| 20260510053838 | 61 | 96 | 0.0 | 1.0 | 0.00 | 0.77 | 0.77 | 95 | 1019.0 |
| 20260510053041 | 61 | 96 | 1.0 | 3.0 | 0.00 | 0.77 | 0.77 | 94 | 1018.9 |
| 20260510052818 | 62 | 109 | 2.0 | 2.0 | 0.00 | 0.77 | 0.77 | 95 | 1018.9 |
| 20260510051838 | 62 | 117 | 1.0 | 1.0 | 0.00 | 0.77 | 0.77 | 94 | 1018.8 |
| 20260510051541 | 62 | 117 | 1.0 | 2.0 | 0.00 | 0.77 | 0.77 | 94 | 1018.7 |
| 20260510050817 | 63 | 5 | 1.0 | 2.0 | 0.00 | 0.77 | 0.77 | 94 | 1018.6 |
| 20260510050041 | 63 | 0 | 0.0 | 1.0 | 0.00 | 0.77 | 0.77 | 94 | 1018.6 |
| 20260510045817 | 64 | 0.0 | 0.0 | 0.00 | 0.77 | 0.77 | 94 | 1018.6 | |
| 20260510044838 | 64 | 0.0 | 0.0 | 0.00 | 0.77 | 0.77 | 94 | 1018.6 | |
| 20260510044550 | 64 | 0 | 0.0 | 1.0 | 0.00 | 0.77 | 0.77 | 93 | 1018.5 |
| 20260510043817 | 65 | 0.0 | 0.0 | 0.00 | 0.77 | 0.77 | 93 | 1018.4 | |
| 20260510043045 | 64 | 0 | 0.0 | 0.0 | 0.00 | 0.77 | 0.77 | 93 | 1018.3 |
| 20260510042817 | 65 | 0.0 | 0.0 | 0.00 | 0.77 | 0.77 | 93 | 1018.4 | |
| 20260510041817 | 65 | 0.0 | 0.0 | 0.00 | 0.77 | 0.77 | 93 | 1018.5 | |
| 20260510041543 | 65 | 0 | 0.0 | 1.0 | 0.00 | 0.77 | 0.77 | 92 | 1018.4 |
| 20260510040838 | 65 | 0.0 | 0.0 | 0.00 | 0.77 | 0.77 | 93 | 1018.2 | |
| 20260510040044 | 65 | 0 | 0.0 | 2.0 | 0.00 | 0.77 | 0.77 | 92 | 1018.2 |
| 20260510035817 | 65 | 0.0 | 0.0 | 0.00 | 0.77 | 0.77 | 92 | 1018.2 | |
| 20260510034817 | 65 | 0.0 | 0.0 | 0.00 | 0.77 | 0.77 | 91 | 1018.0 | |
| 20260510034542 | 64 | 0 | 0.0 | 2.0 | 0.00 | 0.77 | 0.77 | 91 | 1018.0 |
| 20260510033818 | 65 | 0.0 | 0.0 | 0.00 | 0.77 | 0.77 | 93 | 1017.9 | |
| 20260510033041 | 65 | 0 | 0.0 | 2.0 | 0.00 | 0.77 | 0.77 | 93 | 1017.9 |
| 20260510032817 | 65 | 290 | 1.0 | 2.0 | 0.00 | 0.77 | 0.77 | 93 | 1017.9 |
| 20260510031817 | 65 | 0.0 | 1.0 | 0.00 | 0.77 | 0.77 | 93 | 1017.7 | |
| 20260510031545 | 64 | 251 | 0.0 | 1.0 | 0.00 | 0.77 | 0.77 | 93 | 1017.6 |
| 20260510030817 | 65 | 0.0 | 0.0 | 0.00 | 0.77 | 0.77 | 93 | 1017.8 | |
| 20260510030052 | 64 | 0 | 0.0 | 0.0 | 0.00 | 0.77 | 0.77 | 93 | 1017.5 |
| 20260510025817 | 65 | 0.0 | 0.0 | 0.00 | 0.77 | 0.77 | 93 | 1017.8 | |
| 20260510024817 | 65 | 251 | 0.0 | 1.0 | 0.00 | 0.77 | 0.77 | 93 | 1017.7 |
| 20260510024544 | 64 | 0 | 0.0 | 1.0 | 0.00 | 0.77 | 0.77 | 92 | 1017.6 |
| 20260510023859 | 65 | 0.0 | 0.0 | 0.00 | 0.77 | 0.77 | 92 | 1017.7 | |
| 20260510023041 | 65 | 0 | 0.0 | 1.0 | 0.00 | 0.77 | 0.77 | 92 | 1017.6 |
| 20260510022817 | 65 | 0.0 | 0.0 | 0.00 | 0.77 | 0.77 | 93 | 1017.7 | |
| 20260510021838 | 65 | 249 | 0.0 | 1.0 | 0.00 | 0.77 | 0.77 | 93 | 1017.7 |
| 20260510021545 | 64 | 0 | 0.0 | 2.0 | 0.00 | 0.77 | 0.77 | 92 | 1017.7 |
| 20260510020817 | 65 | 0.0 | 1.0 | 0.00 | 0.77 | 0.77 | 93 | 1017.8 | |
| 20260510020044 | 64 | 0 | 0.0 | 2.0 | 0.00 | 0.77 | 0.77 | 92 | 1017.6 |
| 20260510015819 | 65 | 0.0 | 0.0 | 0.00 | 0.77 | 0.77 | 94 | 1017.7 | |
| 20260510014819 | 65 | 230 | 1.0 | 2.0 | 0.00 | 0.77 | 0.77 | 93 | 1017.7 |
| 20260510014542 | 64 | 224 | 1.0 | 3.0 | 0.00 | 0.77 | 0.77 | 92 | 1017.7 |
| 20260510013820 | 65 | 205 | 1.0 | 3.0 | 0.00 | 0.77 | 0.77 | 93 | 1017.8 |
| 20260510013041 | 64 | 0 | 0.0 | 2.0 | 0.00 | 0.77 | 0.77 | 92 | 1017.8 |
| 20260510012819 | 65 | 236 | 0.0 | 1.0 | 0.00 | 0.77 | 0.77 | 91 | 1017.8 |
| 20260510011820 | 65 | 0.0 | 0.0 | 0.01 | 0.77 | 0.77 | 92 | 1017.9 | |
| 20260510011546 | 64 | 0 | 0.0 | 2.0 | 0.01 | 0.77 | 0.77 | 93 | 1017.8 |
| 20260510010819 | 64 | 181 | 0.0 | 2.0 | 0.01 | 0.77 | 0.77 | 94 | 1018.0 |
| 20260510010039 | 64 | 233 | 0.0 | 3.0 | 0.02 | 0.77 | 0.77 | 95 | 1018.0 |
| 20260510005820 | 64 | 194 | 1.0 | 2.0 | 0.02 | 0.77 | 0.77 | 95 | 1018.0 |
| 20260510004819 | 64 | 210 | 2.0 | 2.0 | 0.02 | 0.77 | 0.77 | 94 | 1018.2 |
| 20260510004549 | 63 | 234 | 1.0 | 3.0 | 0.02 | 0.77 | 0.77 | 93 | 1018.1 |
| 20260510003819 | 64 | 227 | 1.0 | 2.0 | 0.02 | 0.77 | 0.77 | 95 | 1018.3 |
| 20260510003043 | 63 | 209 | 0.0 | 2.0 | 0.03 | 0.77 | 0.77 | 94 | 1018.4 |
| 20260510002820 | 63 | 152 | 1.0 | 2.0 | 0.04 | 0.77 | 0.77 | 94 | 1018.5 |
| 20260510001819 | 63 | 0.0 | 0.0 | 0.08 | 0.76 | 0.76 | 94 | 1018.5 | |
| 20260510001541 | 63 | 0 | 0.0 | 2.0 | 0.10 | 0.76 | 0.76 | 94 | 1018.5 |
| 20260510001019 | 63 | 186 | 1.0 | 2.0 | 0.17 | 0.76 | 0.76 | 94 | 1018.6 |
| 20260510000043 | 62 | 0 | 0.0 | 2.0 | 0.36 | 0.75 | 0.75 | 94 | 1018.7 |
| 20260510000040 | 63 | 138 | 0.0 | 1.0 | 0.37 | 0.75 | 0.75 | 94 | 1018.8 |
| 20260509235019 | 63 | 0.0 | 0.0 | 0.44 | 0.75 | 0.75 | 96 | 1018.8 | |
| 20260509234542 | 62 | 0 | 0.0 | 4.0 | 0.47 | 0.75 | 0.75 | 95 | 1018.9 |
| 20260509234020 | 62 | 69 | 1.0 | 4.0 | 0.49 | 0.75 | 0.75 | 96 | 1019.0 |
| 20260509233046 | 61 | 140 | 0.0 | 3.0 | 0.49 | 0.74 | 0.74 | 95 | 1019.0 |
| 20260509233019 | 62 | 117 | 1.0 | 3.0 | 0.49 | 0.73 | 0.73 | 95 | 1019.1 |
| 20260509232019 | 62 | 118 | 2.0 | 3.0 | 0.46 | 0.69 | 0.69 | 95 | 1019.2 |
| 20260509231544 | 62 | 134 | 1.0 | 6.0 | 0.44 | 0.66 | 0.66 | 94 | 1019.3 |
| 20260509231041 | 63 | 285 | 1.0 | 4.0 | 0.45 | 0.59 | 0.59 | 95 | 1019.3 |
| 20260509230042 | 63 | 0 | 0.0 | 2.0 | 0.29 | 0.38 | 0.38 | 97 | 1019.2 |
| 20260509230019 | 64 | 224 | 0.0 | 2.0 | 0.30 | 0.38 | 0.38 | 97 | 1019.2 |
| 20260509225019 | 64 | 351 | 1.0 | 2.0 | 0.31 | 0.31 | 0.31 | 97 | 1019.2 |
| 20260509224542 | 64 | 0 | 0.0 | 4.0 | 0.27 | 0.27 | 0.27 | 96 | 1019.2 |
| 20260509224017 | 64 | 208 | 2.0 | 4.0 | 0.26 | 0.26 | 0.26 | 97 | 1019.3 |
| 20260509223041 | 64 | 352 | 2.0 | 5.0 | 0.25 | 0.25 | 0.25 | 96 | 1019.2 |
| 20260509223017 | 64 | 288 | 0.0 | 5.0 | 0.24 | 0.24 | 0.24 | 96 | 1019.2 |
| 20260509222038 | 64 | 308 | 1.0 | 3.0 | 0.23 | 0.23 | 0.23 | 96 | 1019.4 |
| 20260509221545 | 64 | 5 | 2.0 | 5.0 | 0.21 | 0.21 | 0.21 | 95 | 1019.4 |
| 20260509221016 | 65 | 351 | 2.0 | 4.0 | 0.14 | 0.14 | 0.14 | 95 | 1019.5 |
| 20260509220046 | 65 | 343 | 0.0 | 4.0 | 0.09 | 0.09 | 0.09 | 93 | 1019.4 |
| 20260509220037 | 65 | 325 | 1.0 | 1.0 | 0.08 | 0.08 | 0.08 | 94 | 1019.5 |
| 20260509215016 | 66 | 216 | 1.0 | 3.0 | 0.00 | 0.00 | 0.00 | 93 | 1019.7 |
| 20260509214542 | 66 | 0 | 0.0 | 4.0 | 0.00 | 0.00 | 0.00 | 92 | 1019.8 |
| 20260509214016 | 67 | 8 | 2.0 | 4.0 | 0.00 | 0.00 | 0.00 | 91 | 1019.7 |
| 20260509213045 | 67 | 328 | 1.0 | 4.0 | 0.00 | 0.00 | 0.00 | 89 | 1019.8 |
| 20260509213017 | 67 | 302 | 1.0 | 3.0 | 0.00 | 0.00 | 0.00 | 89 | 1019.9 |
| 20260509212017 | 68 | 312 | 1.0 | 3.0 | 0.00 | 0.00 | 0.00 | 90 | 1019.9 |
| 20260509211541 | 67 | 0 | 0.0 | 5.0 | 0.00 | 0.00 | 0.00 | 89 | 1019.9 |
| 20260509211017 | 68 | 267 | 1.0 | 2.0 | 0.00 | 0.00 | 0.00 | 89 | 1020.0 |
| 20260509210053 | 67 | 300 | 0.0 | 3.0 | 0.00 | 0.00 | 0.00 | 89 | 1020.1 |
| 20260509210016 | 68 | 301 | 1.0 | 2.0 | 0.00 | 0.00 | 0.00 | 90 | 1020.0 |
| 20260509205016 | 67 | 325 | 2.0 | 3.0 | 0.00 | 0.00 | 0.00 | 91 | 1020.2 |
| 20260509204544 | 67 | 193 | 1.0 | 4.0 | 0.00 | 0.00 | 0.00 | 89 | 1020.1 |
| 20260509204016 | 67 | 305 | 0.0 | 2.0 | 0.00 | 0.00 | 0.00 | 91 | 1020.1 |
| 20260509203043 | 67 | 340 | 1.0 | 5.0 | 0.00 | 0.00 | 0.00 | 87 | 1020.1 |
| 20260509203017 | 68 | 330 | 2.0 | 4.0 | 0.00 | 0.00 | 0.00 | 87 | 1020.2 |
| 20260509202016 | 68 | 284 | 1.0 | 2.0 | 0.00 | 0.00 | 0.00 | 90 | 1020.1 |
| 20260509201541 | 67 | 0 | 1.0 | 4.0 | 0.00 | 0.00 | 0.00 | 88 | 1020.1 |
| 20260509201016 | 68 | 325 | 1.0 | 3.0 | 0.00 | 0.00 | 0.00 | 89 | 1020.2 |
| 20260509200043 | 67 | 247 | 0.0 | 4.0 | 0.00 | 0.00 | 0.00 | 91 | 1020.2 |
| 20260509200016 | 67 | 279 | 2.0 | 4.0 | 0.00 | 0.00 | 0.00 | 92 | 1020.3 |
| 20260509195017 | 66 | 243 | 1.0 | 2.0 | 0.00 | 0.00 | 0.00 | 92 | 1020.2 |
| 20260509194540 | 66 | 204 | 1.0 | 3.0 | 0.00 | 0.00 | 0.00 | 90 | 1020.2 |
| 20260509194039 | 66 | 339 | 1.0 | 2.0 | 0.00 | 0.00 | 0.00 | 89 | 1020.2 |
| 20260509193042 | 67 | 304 | 0.0 | 4.0 | 0.00 | 0.00 | 0.00 | 89 | 1020.2 |
| 20260509193039 | 67 | 268 | 1.0 | 2.0 | 0.00 | 0.00 | 0.00 | 89 | 1020.2 |
| 20260509192018 | 68 | 270 | 1.0 | 3.0 | 0.00 | 0.00 | 0.00 | 88 | 1020.2 |
| 20260509191546 | 68 | 289 | 2.0 | 5.0 | 0.00 | 0.00 | 0.00 | 86 | 1019.8 |
| 20260509191019 | 69 | 256 | 1.0 | 3.0 | 0.00 | 0.00 | 0.00 | 87 | 1019.9 |
| 20260509190044 | 67 | 255 | 2.0 | 4.0 | 0.00 | 0.00 | 0.00 | 83 | 1020.1 |
| 20260509190019 | 68 | 210 | 2.0 | 4.0 | 0.00 | 0.00 | 0.00 | 83 | 1020.0 |
| 20260509185018 | 68 | 207 | 2.0 | 3.0 | 0.00 | 0.00 | 0.00 | 82 | 1020.2 |
| 20260509184552 | 68 | 202 | 1.0 | 4.0 | 0.00 | 0.00 | 0.00 | 81 | 1020.2 |
| 20260509184018 | 68 | 304 | 1.0 | 3.0 | 0.00 | 0.00 | 0.00 | 83 | 1020.2 |
| 20260509183042 | 67 | 284 | 0.0 | 2.0 | 0.00 | 0.00 | 0.00 | 84 | 1020.1 |
| 20260509183039 | 67 | 220 | 1.0 | 2.0 | 0.00 | 0.00 | 0.00 | 85 | 1020.1 |
| 20260509182018 | 67 | 175 | 0.0 | 4.0 | 0.00 | 0.00 | 0.00 | 85 | 1020.3 |
| 20260509181552 | 66 | 252 | 0.0 | 3.0 | 0.00 | 0.00 | 0.00 | 85 | 1020.3 |
| 20260509181018 | 67 | 259 | 1.0 | 3.0 | 0.00 | 0.00 | 0.00 | 84 | 1020.3 |
| 20260509180046 | 66 | 215 | 1.0 | 3.0 | 0.00 | 0.00 | 0.00 | 81 | 1020.1 |
| 20260509180018 | 66 | 208 | 1.0 | 3.0 | 0.00 | 0.00 | 0.00 | 81 | 1020.1 |
| 20260509175018 | 66 | 221 | 1.0 | 2.0 | 0.00 | 0.00 | 0.00 | 81 | 1020.0 |
| 20260509174541 | 65 | 200 | 0.0 | 2.0 | 0.00 | 0.00 | 0.00 | 78 | 1020.0 |
| 20260509174018 | 65 | 156 | 0.0 | 1.0 | 0.00 | 0.00 | 0.00 | 81 | 1020.0 |
| 20260509173046 | 64 | 134 | 0.0 | 2.0 | 0.00 | 0.00 | 0.00 | 79 | 1020.1 |
| 20260509173018 | 64 | 125 | 0.0 | 1.0 | 0.00 | 0.00 | 0.00 | 79 | 1020.1 |
| 20260509172018 | 62 | 131 | 1.0 | 1.0 | 0.00 | 0.00 | 0.00 | 81 | 1020.1 |
| 20260509171541 | 61 | 92 | 1.0 | 3.0 | 0.00 | 0.00 | 0.00 | 81 | 1019.9 |
| 20260509171039 | 62 | 135 | 2.0 | 3.0 | 0.00 | 0.00 | 0.00 | 82 | 1019.9 |
| 20260509170047 | 61 | 103 | 1.0 | 4.0 | 0.00 | 0.00 | 0.00 | 78 | 1019.7 |
| 20260509170040 | 61 | 110 | 2.0 | 2.0 | 0.00 | 0.00 | 0.00 | 78 | 1019.9 |
| 20260509165018 | 61 | 100 | 2.0 | 3.0 | 0.00 | 0.00 | 0.00 | 78 | 1019.8 |
| 20260509164547 | 60 | 146 | 2.0 | 4.0 | 0.00 | 0.00 | 0.00 | 79 | 1019.6 |
| 20260509164019 | 60 | 115 | 3.0 | 3.0 | 0.00 | 0.00 | 0.00 | 79 | 1019.6 |
| 20260509163045 | 60 | 96 | 2.0 | 4.0 | 0.00 | 0.00 | 0.00 | 79 | 1019.5 |
| 20260509163018 | 60 | 109 | 3.0 | 3.0 | 0.00 | 0.00 | 0.00 | 80 | 1019.5 |
| 20260509162018 | 60 | 104 | 3.0 | 3.0 | 0.00 | 0.00 | 0.00 | 79 | 1019.4 |
| 20260509161540 | 59 | 107 | 2.0 | 6.0 | 0.00 | 0.00 | 0.00 | 78 | 1019.3 |
| 20260509161018 | 59 | 111 | 3.0 | 4.0 | 0.00 | 0.00 | 0.00 | 78 | 1019.4 |